Time,TemperatureF,DewpointF,PressureIn,WindDirection,WindDirectionDegrees,WindSpeedMPH,WindSpeedGustMPH,Humidity,HourlyPrecipIn,Conditions,Clouds,dailyrainin,SoftwareType,DateUTC
2013-05-06 00:00:00,61.4,38.1,30.09,NNW,331,4.0,6.0,42,0.00,,,0.00,Wunderground v.1.13,2013-05-06 04:00:00,
2013-05-06 00:30:00,60.5,38.5,30.10,North,349,3.0,3.0,44,0.00,,,0.00,Wunderground v.1.13,2013-05-06 04:30:00,
2013-05-06 01:00:00,59.0,39.3,30.10,NNW,348,3.0,3.0,48,0.00,,,0.00,Wunderground v.1.13,2013-05-06 05:00:00,
2013-05-06 01:30:00,57.4,39.4,30.10,NNW,346,4.0,4.0,51,0.00,,,0.00,Wunderground v.1.13,2013-05-06 05:30:00,
2013-05-06 02:00:00,56.1,39.7,30.10,NNW,340,4.0,6.0,54,0.00,,,0.00,Wunderground v.1.13,2013-05-06 06:00:00,
2013-05-06 02:30:00,54.9,39.5,30.10,NNW,333,2.0,2.0,56,0.00,,,0.00,Wunderground v.1.13,2013-05-06 06:30:00,
2013-05-06 03:00:00,54.5,39.1,30.09,NNW,336,1.0,1.0,56,0.00,,,0.00,Wunderground v.1.13,2013-05-06 07:00:00,
2013-05-06 03:30:00,53.4,39.0,30.10,NW,319,0.0,2.0,58,0.00,,,0.00,Wunderground v.1.13,2013-05-06 07:30:00,
2013-05-06 04:00:00,51.4,38.8,30.10,North,360,1.0,1.0,62,0.00,,,0.00,Wunderground v.1.13,2013-05-06 08:00:00,
2013-05-06 04:30:00,49.2,38.7,30.10,North,360,0.0,0.0,67,0.00,,,0.00,Wunderground v.1.13,2013-05-06 08:30:00,
2013-05-06 05:00:00,47.1,38.5,30.11,North,360,0.0,0.0,72,0.00,,,0.00,Wunderground v.1.13,2013-05-06 09:00:00,
2013-05-06 05:30:00,48.7,39.7,30.11,NNW,346,0.0,0.0,71,0.00,,,0.00,Wunderground v.1.13,2013-05-06 09:30:00,
2013-05-06 06:00:00,50.0,39.5,30.11,NNW,337,0.0,0.0,67,0.00,,,0.00,Wunderground v.1.13,2013-05-06 10:00:00,
2013-05-06 06:30:00,51.1,39.7,30.12,NNW,330,1.0,1.0,65,0.00,,,0.00,Wunderground v.1.13,2013-05-06 10:30:00,
2013-05-06 07:00:00,52.5,40.7,30.11,NNE,13,2.0,3.0,64,0.00,,,0.00,Wunderground v.1.13,2013-05-06 11:00:00,
2013-05-06 07:30:00,54.1,40.5,30.12,NNW,335,3.0,3.0,60,0.00,,,0.00,Wunderground v.1.13,2013-05-06 11:30:00,
2013-05-06 08:00:00,56.3,41.7,30.12,NNW,333,2.0,3.0,58,0.00,,,0.00,Wunderground v.1.13,2013-05-06 12:00:00,
2013-05-06 08:30:00,59.9,42.2,30.12,NNW,328,1.0,3.0,52,0.00,,,0.00,Wunderground v.1.13,2013-05-06 12:30:00,
2013-05-06 09:00:00,63.9,42.1,30.11,NNW,340,2.0,2.0,45,0.00,,,0.00,Wunderground v.1.13,2013-05-06 13:00:00,
2013-05-06 09:30:00,66.9,43.7,30.10,NNW,334,2.0,2.0,43,0.00,,,0.00,Wunderground v.1.13,2013-05-06 13:30:00,
2013-05-06 10:00:00,69.8,42.3,30.10,North,5,2.0,2.0,37,0.00,,,0.00,Wunderground v.1.13,2013-05-06 14:00:00,
2013-05-06 10:30:00,72.6,42.6,30.09,WNW,292,1.0,1.0,34,0.00,,,0.00,Wunderground v.1.13,2013-05-06 14:30:00,
2013-05-06 11:00:00,74.9,43.0,30.08,WNW,296,1.0,5.0,32,0.00,,,0.00,Wunderground v.1.13,2013-05-06 15:00:00,
2013-05-06 11:30:00,76.8,41.2,30.06,WSW,247,2.0,2.0,28,0.00,,,0.00,Wunderground v.1.13,2013-05-06 15:30:00,
2013-05-06 12:00:00,78.7,40.9,30.05,NNW,330,4.0,4.0,26,0.00,,,0.00,Wunderground v.1.13,2013-05-06 16:00:00,
2013-05-06 12:30:00,80.2,42.2,30.03,West,272,3.0,8.0,26,0.00,,,0.00,Wunderground v.1.13,2013-05-06 16:30:00,
2013-05-06 13:00:00,80.8,42.7,30.02,NE,35,3.0,3.0,26,0.00,,,0.00,Wunderground v.1.13,2013-05-06 17:00:00,
2013-05-06 13:30:00,81.8,44.5,30.01,North,360,3.0,6.0,27,0.00,,,0.00,Wunderground v.1.13,2013-05-06 17:30:00,
2013-05-06 14:00:00,82.0,42.7,30.00,NW,320,3.0,5.0,25,0.00,,,0.00,Wunderground v.1.13,2013-05-06 18:00:00,
2013-05-06 14:30:00,81.3,39.9,29.99,East,94,4.0,4.0,23,0.00,,,0.00,Wunderground v.1.13,2013-05-06 18:30:00,
2013-05-06 15:00:00,83.5,38.2,29.98,NW,316,5.0,5.0,20,0.00,,,0.00,Wunderground v.1.13,2013-05-06 19:00:00,
2013-05-06 15:30:00,82.2,38.4,29.97,ESE,119,2.0,2.0,21,0.00,,,0.00,Wunderground v.1.13,2013-05-06 19:30:00,
2013-05-06 16:00:00,82.7,36.2,29.96,NE,49,3.0,3.0,19,0.00,,,0.00,Wunderground v.1.13,2013-05-06 20:00:00,
2013-05-06 16:30:00,81.2,37.5,29.95,WNW,287,3.0,4.0,21,0.00,,,0.00,Wunderground v.1.13,2013-05-06 20:30:00,
2013-05-06 17:00:00,81.7,38.0,29.94,North,350,3.0,3.0,21,0.00,,,0.00,Wunderground v.1.13,2013-05-06 21:00:00,
2013-05-06 17:30:00,78.2,41.5,29.94,NW,315,5.0,7.0,27,0.00,,,0.00,Wunderground v.1.13,2013-05-06 21:30:00,
2013-05-06 18:00:00,77.4,41.7,29.94,WNW,285,4.0,5.0,28,0.00,,,0.00,Wunderground v.1.13,2013-05-06 22:00:00,
2013-05-06 18:30:00,75.8,42.1,29.94,NNW,336,5.0,5.0,30,0.00,,,0.00,Wunderground v.1.13,2013-05-06 22:30:00,
2013-05-06 19:00:00,74.5,41.9,29.94,NNW,332,7.0,8.0,31,0.00,,,0.00,Wunderground v.1.13,2013-05-06 23:00:00,
2013-05-06 19:30:00,72.5,41.0,29.95,NW,319,6.0,6.0,32,0.00,,,0.00,Wunderground v.1.13,2013-05-06 23:30:00,
2013-05-06 20:00:00,70.1,40.4,29.95,NW,325,3.0,3.0,34,0.00,,,0.00,Wunderground v.1.13,2013-05-07 00:00:00,
2013-05-06 20:30:00,68.7,39.2,29.96,NNW,329,5.0,5.0,34,0.00,,,0.00,Wunderground v.1.13,2013-05-07 00:30:00,
2013-05-06 21:00:00,67.3,38.7,29.97,NNW,340,5.0,8.0,35,0.00,,,0.00,Wunderground v.1.13,2013-05-07 01:00:00,
2013-05-06 21:30:00,66.2,39.1,29.97,NW,320,6.0,7.0,37,0.00,,,0.00,Wunderground v.1.13,2013-05-07 01:30:00,
2013-05-06 22:00:00,65.0,39.4,29.98,NNW,327,7.0,7.0,39,0.00,,,0.00,Wunderground v.1.13,2013-05-07 02:00:00,
2013-05-06 22:30:00,63.8,40.3,29.98,NNW,336,5.0,9.0,42,0.00,,,0.00,Wunderground v.1.13,2013-05-07 02:30:00,
2013-05-06 23:00:00,62.7,41.6,29.97,NNW,341,4.0,4.0,46,0.00,,,0.00,Wunderground v.1.13,2013-05-07 03:00:00,
2013-05-06 23:30:00,61.9,42.0,29.98,NNW,338,5.0,14.0,48,0.00,,,0.00,Wunderground v.1.13,2013-05-07 03:30:00,